www.pogodaiklimat.ru

Погода и климат >> Архив погоды >> Индия >> Chandrapur


ПОГОДА в Chandrapur

  • Прогноз погоды в Chandrapur
  • Монитор погоды в Chandrapur
  • Климат города

АРХИВ ПОГОДЫ в Chandrapur

Время (UTC), дата Ветер
(напр.,м/с)
 
Видим.   Явления Облачность Т
(С)
Тd
(С)
f
(%)
Тe
(С)
Тes
(С)
Комфортность P
(гПа)
Po
(гПа)
Тmin
(С)
Tmax
(С)
R
(мм)
R24
(мм)
S
(см)
03 10.07 ЮЗ 1 2000 м 10/8 600 м
[Sc diur, vesp As op]
+26.0 +25.1 95 +37 +38 очень
душно
1000.7 1001.0 +24.2 17
06 10.07 Ю 1 2000 м 10/8 600 м
[Sc diur, vesp As op]
+25.0 +24.1 95 +34 +35 очень
душно
1001.6 1002.0
09 10.07 ЮЗ 1 2000 м 10/8 600 м
[Sc diur, vesp As op]
+25.6 +24.1 91 +35 +36 очень
душно
1000.8 1001.0
12 10.07 СЗ 2 2000 м 10/8 600 м
[Sc diur, vesp As op]
+26.0 +24.6 92 +37 +37 очень
душно
999.4 999.0 +26.2 1
03 11.07 ЮЗ 2 2000 м 10/8 600 м
[Sc diur, vesp As op]
+25.4 +23.3 88 +34 +34 очень
душно
1002.6 1003.0 +24.4 3
06 11.07 СЗ 1 2000 м 10/8 600 м
[Sc diur, vesp As op]
+25.6 +24.1 91 +35 +36 очень
душно
1002.6 1003.0 1
09 11.07 З 1 2000 м 10/5 600 м
[St As op]
+27.2 +24.6 86 +39 +40 очень
душно
1000.6 1001.0 1
12 11.07 ЮЗ 1 2000 м 10/8 600 м
[Sc diur, vesp As op]
+25.4 +24.2 93 +35 +35 очень
душно
999.4 999.0 +27.4 7
03 12.07 СВ 1 2000 м 10/8 600 м
[Sc diur, vesp As op]
+25.0 +23.5 91 +34 +34 очень
душно
1000.7 1001.0 +23.8 43
09 12.07 З 1 2000 м 10/8 600 м
[Sc diur, vesp As op]
+25.4 +24.2 93 +35 +36 очень
душно
999.4 999.0 13
12 12.07 СЗ 2 2000 м 10/8 600 м
[Sc diur, vesp As op]
+24.6 +22.2 87 +32 +32 очень
душно
999.5 1000.0 +25.8 15
03 13.07 З 2 2000 м 10/8 600 м
[Sc diur, vesp As op]
+25.6 +24.1 91 +35 +36 очень
душно
1001.6 1002.0 +24.2 19
06 13.07 З 1 2000 м 10/8 600 м
[Sc diur, vesp As op]
+28.6 +24.3 78 +40 +41 очень
душно
1001.2 1001.0
09 13.07 З 1 2000 м 10/8 600 м
[Sc diur, vesp As op]
+28.0 +25.2 85 +41 +41 опасность
перегрева
1000.5 1001.0 1
12 13.07 ЮЗ 2 2000 м 10/8 600 м
[Sc diur, vesp As op]
+28.0 +25.2 85 +41 +41 опасность
перегрева
998.4 998.0 +29.6 1
03 14.07 ЮЗ 2 2000 м 10/8 600 м
[Sc diur, vesp As op]
+26.2 +24.5 90 +37 +37 очень
душно
1000.7 1001.0 +24.4 4
06 14.07 СЗ 1 2000 м 10/8 600 м
[Sc diur, vesp As op]
+28.0 +24.3 80 +39 +40 очень
душно
1000.6 1001.0
09 14.07 ЮЗ 1 2000 м 10/8 600 м
[Sc diur, vesp As op]
+28.6 +25.5 83 +42 +43 опасность
перегрева
999.2 999.0
12 14.07 2000 м н/о +28.4 +26.2 88 +43 +44 опасность
перегрева
998.3 998.0 +29.0
03 15.07 З 2 2000 м 10/8 600 м
[Sc diur, vesp As op]
+27.0 +24.1 84 +37 +38 очень
душно
999.6 1000.0 +25.6 1
06 15.07 СЗ 1 2000 м 10/8 600 м
[Sc diur, vesp As op]
+28.4 +25.0 82 +41 +42 опасность
перегрева
999.4 999.0
09 15.07 ЮЗ 1 4000 м 10/8 600 м
[Sc diur, vesp As op]
+29.6 +26.0 81 +44 +45 опасность
перегрева
997.1 997.0
12 15.07 З 2 2000 м 10/8 600 м
[Sc diur, vesp As op]
+30.0 +26.7 83 +47 +47 опасность
перегрева
997.0 997.0 +31.0
03 16.07 З 2 2000 м 10/8 600 м
[Sc diur, vesp As op]
+24.6 +23.7 95 +33 +34 очень
душно
1000.8 1001.0 +24.4 54
06 16.07 З 1 2000 м 10/8 600 м
[Sc diur, vesp As op]
+25.0 +24.1 95 +34 +35 очень
душно
999.7 1000.0 8
09 16.07 СЗ 1 2000 м 10/8 600 м
[Sc diur, vesp As op]
+26.6 +25.2 92 +38 +39 очень
душно
998.5 999.0 9
12 16.07 ЮЗ 2 2000 м 10/8 600 м
[Sc diur, vesp As op]
+27.2 +25.5 90 +40 +40 очень
душно
997.2 997.0 +28.0 9

 

Местоположение метеостанции Chandrapur (Maharashtra, Индия): широта 19.97 долгота 79.30 высота над уровнем моря 193 м.

В архиве по умолчанию представлена погода в Chandrapur за последнюю неделю. Архивные данные за месяц целиком и за предыдущие месяцы, начиная с января 2011 года, Вы можете получить, выбрав интересующий диапазон дат из раскрывающегося списка и нажав кнопку "Ввод!".


*Определитесь, кто Вы:
робот инопланетянин человек

Внимание! Время в таблицах - всемирное. Для получения местного времени необходимо прибавить поправку, которая в Chandrapur равна 5.5 ч.

Смотрите также архив погоды в соседних городах и на ближайших метеорологических станциях:

Погода в Adilabad (Telangana, Индия) (88 км)
Погода в Bramhapuri (Maharashtra, Индия) (91 км)
Погода в Wardha (Maharashtra, Индия) (108 км)
Погода в Nagpur (Maharashtra, Индия) (128 км)
Погода в Yeotmal (Maharashtra, Индия) (129 км)
Погода в Ramgundam (Telangana, Индия) (134 км)
Погода в Amravati (Maharashtra, Индия) (191 км)
Погода в Gondia (Maharashtra, Индия) (191 км)
Погода в Nizamabad (Telangana, Индия) (192 км)
Погода в Hanamkonda (Telangana, Индия) (219 км)

Пояснения к столбцам:

Ветер - указаны скорость ветра в м/с - средняя за 10 мин, порывы в срок и между сроками (в фигурных скобках) и направление, откуда дует ветер: С - северный, СВ - северо-восточный, В - восточный, ЮВ - юго-восточный, Ю - южный, ЮЗ - юго-западный, З - западный, СЗ - северо-западный.
Видимость - горизонтальная дальность видимости в метрах или километрах. При видимости от 1 до 10 км при отсутствии осадков обычно наблюдается дымка, при ухудшении видимости до 1 км и менее - туман. В сухую погоду видимость может ухудшаться дымом, пылью или мглою.
Явления - указаны атмосферные явления, наблюдавшиеся в срок или в последний час перед сроком; фигурными скобками обозначены явления, наблюдавшиеся между сроками (за 1-3 часа до срока); квадратными скобками обозначены град или гололедные отложения с указанием их диаметра в мм.
Облачность - указаны через наклонную черту общая и нижняя облачность в баллах и высота нижней границы облаков в метрах; квадратными скобками обозначены формы облаков: Ci - перистые, Cs - перисто-слоистые, Cc - перисто-кучевые, Ac - высококучевые, As - высокослоистые, Sc - слоисто-кучевые, Ns - слоисто-дождевые, Cu - кучевые, Cb - кучево-дождевые. Подробнее классификацию облаков см. в Атласе облаков (PDF).
T - Температура воздуха - температура, измеренная на высоте 2 м над землей.
Td - Температура точки росы - температура, при понижении до которой содержащийся в воздухе водяной пар достигнет насыщения.
f - Относительная влажность воздуха - влажноcть воздуха, измеренная на высоте 2 м над землей.
Te - Эффективная температура - температура, которую ощущает одетый по сезону человек в тени. Характеристика душности погоды. При расчете учитывается влияние влажности воздуха и скорости ветра на теплоощущения человека.
Tes - Эффективная температура на солнце - температура, которую ощущает человек, с поправкой на солнечный нагрев. Характеристика знойности погоды. Зависит от высоты солнца над горизонтом, облачности и скорости ветра. Ночью, в пасмурную погоду, а также при ветре 12 м/с и более поправка равна нулю.
P - Атмосферное давление - приведенное к уровню моря атмосферное давление.
Po - Атмосферное давление - измеренное на уровне метеостанции атмосферное давление.
Tmin - Минимальная температура - минимум температуры воздуха на высоте 2 м над землей.
Tmax - Максимальная температура - максимум температуры воздуха на высоте 2 м над землей.
R - Количество осадков - Количество выпавших осадков за период времени, мм. При наведении курсора мыши на число - период времени, за который выпало указанное количество осадков.
R24 - Количество осадков - Количество выпавших осадков за 24 часа, мм.
S - Снежный покров - Высота снежного покрова, см. При наведении курсора мыши на число - состояние снежного покрова и степень покрытия местности в баллах.